Tracking 29059 objects as of 19-Jun-2024
HD Live streaming from Space Station
objects crossing your sky now

MISR-B-2

Track MISR-B-2 now!
10-day predictions


NORAD ID: 56940
Int'l Code: 2023-084J
Perigee: 446.9 km
Apogee: 451.0 km
Inclination: 97.5 °
Period: 93.4 minutes
Semi major axis: 6819 km
RCS: Unknown
Launch date: June 12, 2023
Source: (TBD)
Launch site: AIR FORCE WESTERN TEST RANGE (AFWTR)
Your satellite tracking list
Your tracking list is empty




NASA's NSSDC Master Catalog

Two Line Element Set (TLE):
1 56940U 23084J   24170.85736358  .00058883  00000-0  13997-2 0  9993
2 56940  97.5339 293.1970 0002960 346.8658  13.2511 15.41455212 56622
Source of the keplerian elements: AFSPC